World > North America > United States > Illinois

Hourly Enos, IL Regional Weather

Feedback E-mail the Weather

Quick WX

Enos, IL Weather Maps

°F °C°F °C
Enos Weather Map
UTC Time: 7/1/2022, 23:51
Your Time:

Enos, IL Regional Weather

Expires:202207020000;;519035
ASUS43 KLOT 012309
RWRIL 

ILLINOIS REGIONAL WEATHER ROUNDUP
NATIONAL WEATHER SERVICE CHICAGO/ROMEOVILLE IL
600 PM CDT FRI JUL 01 2022

NOTE: "FAIR" INDICATES FEW OR NO CLOUDS BELOW 12,000 FEET WITH NO
SIGNIFICANT WEATHER AND/OR OBSTRUCTIONS TO VISIBILITY.

* THESE STATIONS ARE NOT UNDER NWS QUALITY CONTROL. THEY ALSO MAY NOT
  REPORT WEATHER SUCH AS PRECIPITATION OR FOG.


ILZ028>032-037-038-041>044-048-051>054-059>061-020000-
CENTRAL ILLINOIS
  
CITY           SKY/WX    TMP DP  RH WIND       PRES   REMARKS
PONTIAC        CLOUDY    73  70  89 SW5       29.98F                  
BLOOMINGTON    PTSUNNY   74  68  81 NW7       30.01S                  
DECATUR        CLOUDY    83  72  69 N12       29.98F HX  88           
PEORIA         PTSUNNY   74  69  85 VRB3      29.99F                  
LINCOLN*       PTSUNNY   79  73  79 NW3       29.99S HX  83           
SPRINGFIELD    MOSUNNY   81  69  67 N8        29.98S HX  84           
TAYLORVILLE    PTSUNNY   78  70  75 N6        29.97S HX  81           
$$


SKY/WX - Weather  TMP - Temperature  DP - Dew Point  RH - Humidity
WIND - Wind Direction/Speed PRES - Barometric Pressure VSB - Visibility
WCI - Wind Chill Index E13G22 Wind - East Wind 13 mph/Gusts of 22 mph

Trending Headlines

Enos Radar Loop



Enos Quick Facts


National Two Day Weather Forecast


E-mail the Enos Weather Forecast

Voice your opinion or tell us about page issues...